Terminal Aerodrome Forecast
Issued by NWS

Home | Current Version | Previous Version | Text Only | Print | Product List | Glossary On
Versions: 1 2 3 4 5 6 7 8 9 10 11 12 13 14 15 16 17 18 19 20
523
FTUS41 KBGM 082115 AAA
TAFITH
TAF AMD
KITH 082115Z 0821/0918 29010G20KT 6SM -SHSN OVC025
      TEMPO 0821/0901 1/2SM SN OVC007
     FM090300 28010KT P6SM -SHSN SCT025 BKN050
     FM090800 30012G22KT P6SM -SHSN OVC025=

USA.gov is the U.S. government's official web portal to all federal, state and local government web resources and services.